Wind_Speed
13 12 12 12 13 13 14 13 13 15 15 16 18 19 21 24 27 28 30 27 25 21 23 15 11 14 14 12 11 8 3 5 6 6 5 9 5 1 10 8 21 11 9 7 7
13 14 15 14 14 15 15 16 16 15 16 17 18 20 21 24 27 33 26 26 26 21 23 25 21 12 12 11 11 6 5 10 7 9 3 9 14 14 5 5 17 18 10 7 8
17 17 18 18 18 18 18 18 18 18 18 18 19 20 21 22 26 9 10 13 13 25 28 23 23 16 14 13 13 8 9 18 10 18 11 9 13 12 11 8 13 6 24 26 23
16 18 19 20 20 21 22 23 22 22 21 21 21 21 23 18 7 6 3 9 5 6 28 31 21 17 8 11 16 4 17 21 23 20 10 15 13 14 22 22 34 30 25 30 31
18 19 19 20 21 21 22 24 25 25 25 23 23 23 22 8 22 17 24 25 16 12 10 33 28 18 10 4 10 15 7 17 30 25 21 22 21 17 27 31 32 35 32 32 33
18 18 19 20 21 20 21 20 21 22 24 24 23 21 10 11 19 16 19 20 21 18 10 27 16 23 7 7 9 3 15 21 23 21 15 14 24 24 25 37 30 29 31 34 36
18 17 19 20 21 20 20 17 18 19 20 21 20 18 13 30 25 29 26 27 25 18 15 14 23 19 13 1 14 13 7 10 12 8 8 8 23 24 31 32 29 36 36 35 32
21 22 23 26 24 23 22 20 18 20 21 18 16 12 12 35 20 18 18 19 25 21 18 12 20 21 10 4 5 4 4 14 13 10 7 8 29 11 24 21 32 29 28 30 36
25 25 25 28 26 26 26 25 25 18 8 15 10 10 16 15 15 15 28 22 16 18 15 12 10 8 3 5 3 5 16 17 9 5 8 16 30 14 28 24 27 31 36 40 42
28 27 27 25 21 19 16 18 14 8 12 14 6 7 10 27 41 40 30 23 14 12 14 15 11 5 3 9 17 10 11 11 11 4 11 15 28 12 19 22 27 31 34 40 43
29 27 24 20 14 10 13 19 18 6 25 14 21 16 28 35 29 27 20 18 19 8 9 8 6 16 23 18 2 4 9 3 8 10 14 19 24 20 19 21 23 30 33 39 39
27 27 23 18 10 8 11 14 13 13 12 15 12 14 15 23 20 29 13 3 7 3 4 3 18 12 5 7 7 6 5 3 7 8 4 10 17 10 10 14 24 28 30 33 38
27 24 22 17 7 12 13 15 18 10 4 11 10 13 13 18 11 21 8 7 2 7 4 7 7 11 6 7 7 6 12 7 5 9 17 12 18 12 12 12 25 32 33 35 30
27 23 19 14 7 17 13 18 15 6 2 5 5 7 16 18 7 15 2 10 6 9 6 5 7 6 3 11 7 11 4 5 8 5 10 2 17 18 21 23 20 26 32 27 33
27 22 17 12 13 17 19 20 8 1 3 10 6 14 26 8 18 17 16 14 8 5 5 6 1 4 10 4 6 11 10 9 11 6 4 7 5 23 8 22 17 15 28 36 45
26 20 17 8 12 18 20 22 1 4 3 6 14 14 16 14 11 12 9 6 11 4 6 5 12 4 6 5 5 1 4 7 7 3 6 8 9 24 9 20 19 21 25 34 35
26 20 10 5 11 18 20 12 4 4 8 9 12 16 15 13 9 8 11 8 4 2 2 6 13 9 6 5 4 3 4 1 1 3 10 12 9 22 6 3 5 8 17 28 31
25 12 9 9 10 16 19 5 6 4 4 9 13 15 6 10 6 13 5 2 3 3 2 1 2 7 3 11 6 5 8 4 6 4 7 6 13 16 13 22 31 31 29 26 26
17 11 10 8 10 14 10 5 2 4 11 9 14 4 4 5 4 8 6 5 3 3 3 3 3 2 3 1 7 2 4 7 3 4 2 6 10 18 20 15 14 11 18 26 32
14 5 9 9 9 12 5 4 3 8 12 6 3 5 4 7 7 6 5 4 9 8 5 3 2 3 4 3 6 6 4 3 1 5 5 6 9 12 6 19 20 15 10 28 33
10 2 4 5 7 6 2 4 7 14 15 3 3 4 4 4 4 4 4 2 6 9 6 3 1 4 3 3 3 1 3 4 3 5 4 3 6 7 12 9 5 9 21 31 33
8 2 4 7 4 2 1 7 13 8 16 4 4 4 3 4 4 3 4 3 8 3 5 4 2 3 9 8 7 4 4 3 6 7 10 1 8 8 3 7 7 8 25 25 11
12 5 5 6 2 3 6 5 5 6 9 2 4 4 1 3 4 4 5 3 6 1 0 2 0 3 7 3 3 2 4 6 1 2 11 10 9 5 8 14 16 13 23 9 9
8 4 5 4 4 1 4 4 4 12 13 8 8 3 3 4 6 6 10 7 3 7 9 5 4 6 5 5 4 5 9 6 3 4 12 20 18 18 23 17 15 23 13 9 15
9 3 3 4 4 6 4 3 6 7 4 8 4 3 7 6 11 7 4 7 7 11 1 5 5 5 8 11 15 15 14 19 15 11 5 14 17 6 15 14 16 31 20 17 22
8 6 6 15 12 4 3 3 7 12 5 5 6 14 12 9 12 19 14 8 7 5 5 4 4 4 12 16 17 17 21 19 18 18 13 14 22 11 20 20 19 25 22 23 28
11 6 6 7 4 3 4 6 13 12 8 12 15 14 9 14 17 25 27 27 19 9 6 6 2 2 5 6 10 13 16 20 15 11 9 14 9 11 6 9 11 21 24 27 32
Wind_Direction
4 1 358 355 350 346 341 338 333 329 325 320 314 306 299 294 287 282 269 264 261 251 245 248 228 218 209 217 202 182 119 239 238 181 232 348 19 167 330 337 331 354 188 180 195
5 5 3 356 351 344 338 334 330 326 322 319 316 313 310 305 298 282 281 268 253 243 237 239 236 216 196 222 204 173 170 225 217 224 270 313 310 320 317 347 301 305 285 326 263
7 3 358 354 349 343 337 332 327 325 323 318 314 311 310 316 316 298 197 206 215 227 226 227 233 211 215 212 200 196 214 231 238 234 265 280 288 294 303 294 240 289 299 306 312
4 1 355 350 344 339 334 331 327 324 320 315 311 310 308 312 288 175 225 166 143 254 217 215 217 214 202 205 194 214 225 236 253 244 251 262 274 281 275 266 285 295 291 293 293
359 356 351 348 343 339 335 331 329 324 318 313 311 307 309 292 259 279 270 267 269 298 255 211 206 204 206 195 213 243 223 242 249 252 255 265 262 257 265 271 275 280 289 287 288
353 352 351 350 346 341 338 333 330 326 317 311 310 304 302 278 305 309 290 276 279 263 277 214 221 208 224 214 202 194 222 246 260 265 260 266 271 266 264 273 276 274 275 276 284
349 347 349 348 346 344 345 342 336 328 325 312 304 300 274 271 307 292 281 272 259 245 255 235 209 192 220 271 248 262 283 272 234 254 252 277 269 253 254 268 269 272 275 278 281
348 349 351 348 347 345 347 338 338 319 312 318 310 296 261 311 304 298 323 309 266 233 239 215 213 240 227 240 323 218 203 242 253 215 237 191 256 258 252 248 256 267 273 275 279
350 348 348 348 346 341 343 332 331 320 350 342 330 320 280 317 316 336 346 314 290 226 221 214 193 208 168 134 356 242 240 232 255 199 202 201 259 248 258 260 267 273 275 278 279
345 344 349 347 341 328 326 325 330 275 331 328 344 327 310 304 308 305 287 313 308 211 205 206 203 161 163 167 214 218 229 237 234 200 215 246 258 244 270 278 276 273 276 277 275
343 340 342 342 338 340 338 355 7 334 317 281 287 272 291 315 314 296 293 290 294 228 188 180 172 204 201 207 289 14 251 360 265 220 212 237 258 260 253 245 253 259 261 264 267
341 334 337 344 329 335 345 6 353 309 299 313 293 286 324 324 297 306 308 210 307 220 161 178 225 212 163 199 241 266 275 272 295 296 252 278 276 281 262 255 253 257 263 269 277
342 335 334 343 298 337 337 359 350 319 283 290 292 285 320 326 272 283 246 168 271 292 248 210 253 222 203 213 218 220 241 255 253 326 300 306 285 279 264 249 263 268 267 266 268
345 338 334 340 358 344 355 348 347 326 24 277 293 283 324 322 256 318 217 190 202 223 193 238 249 265 261 237 239 253 199 240 237 215 261 208 286 276 276 272 261 261 263 267 270
345 339 334 307 326 338 338 343 347 219 350 328 340 329 328 341 318 347 325 211 208 227 134 237 30 201 233 231 201 251 253 257 230 236 262 242 308 270 217 263 253 245 256 261 265
344 338 327 308 316 334 330 337 166 51 277 321 332 335 331 348 31 26 304 154 213 192 264 241 255 165 195 231 208 140 205 220 227 126 250 209 192 276 241 245 249 245 240 253 263
344 337 329 314 333 338 327 338 47 89 345 336 325 329 314 339 353 8 339 340 26 159 220 252 247 254 204 243 277 165 80 178 169 201 230 192 188 238 254 241 231 235 243 258 265
349 13 26 9 345 342 338 44 70 352 24 299 310 315 342 358 332 344 360 98 110 313 324 251 257 193 181 203 185 179 163 177 185 187 226 153 225 237 230 261 266 269 277 279 276
4 57 43 21 351 351 346 40 279 1 324 321 315 337 318 340 317 354 347 356 16 181 238 196 250 332 102 171 148 194 164 201 12 235 233 233 274 280 274 273 283 273 285 288 293
354 75 43 10 1 352 55 303 283 319 313 315 294 353 318 328 340 2 343 17 345 18 352 6 336 336 343 345 232 167 191 83 279 213 232 253 256 236 224 237 265 278 296 296 306
358 66 26 348 338 36 109 253 301 308 326 325 299 296 299 326 287 308 299 353 15 349 350 14 139 285 24 232 194 239 194 204 190 203 231 293 257 203 216 255 261 288 304 312 309
2 44 324 327 36 44 338 298 298 292 328 286 237 269 299 281 293 289 300 273 12 356 341 335 160 252 237 232 261 249 210 198 213 230 238 313 259 315 234 345 326 311 328 322 270
347 312 28 355 67 316 294 283 266 304 313 297 273 248 292 287 319 249 259 205 263 32 61 312 306 314 328 43 75 213 245 222 206 298 239 231 242 355 342 333 327 315 327 311 200
356 348 338 36 45 92 303 296 313 318 301 341 281 296 345 285 220 270 282 294 227 253 256 132 228 202 190 245 307 288 298 218 210 210 247 242 275 289 295 311 327 311 303 230 186
8 350 9 308 338 321 279 275 320 320 283 306 287 300 310 278 301 259 243 301 283 276 94 163 249 205 248 265 269 262 263 269 257 244 212 265 269 284 283 289 302 292 284 214 187
4 0 327 295 291 297 292 291 312 332 310 300 278 308 301 262 254 283 285 267 245 287 177 175 258 229 272 259 259 274 264 247 246 248 252 260 273 254 264 275 304 303 294 211 188
354 325 286 276 305 301 298 310 308 318 291 274 301 308 302 278 287 278 271 262 250 243 215 175 200 337 259 283 319 271 237 220 229 215 218 244 246 253 258 280 298 307 312 201 185
Height
1519 1517 1514 1512 1510 1507 1504 1502 1499 1497 1495 1493 1491 1487 1485 1484 1479 1478 1474 1477 1480 1484 1485 1486 1485 1487 1490 1489 1489 1489 1499 1505 1490 1485 1477 1469 1468 1468 1469 1469 1465 1470 1468 1468 1470
1519 1516 1514 1512 1509 1506 1503 1500 1498 1495 1493 1491 1488 1485 1483 1480 1474 1470 1472 1470 1474 1477 1479 1480 1481 1483 1485 1485 1486 1486 1493 1486 1476 1474 1471 1467 1466 1468 1469 1468 1466 1467 1469 1471 1472
1518 1515 1513 1510 1507 1504 1501 1499 1496 1494 1491 1489 1486 1483 1480 1477 1473 1464 1462 1462 1464 1467 1470 1474 1479 1479 1481 1482 1480 1478 1476 1470 1466 1470 1471 1469 1471 1468 1469 1466 1463 1464 1465 1466 1469
1518 1516 1512 1509 1505 1502 1498 1495 1492 1490 1488 1485 1482 1478 1476 1477 1478 1464 1463 1462 1460 1460 1462 1466 1471 1474 1475 1472 1470 1474 1469 1469 1463 1468 1469 1465 1467 1466 1465 1464 1457 1460 1462 1465 1465
1518 1515 1511 1507 1504 1500 1496 1492 1488 1485 1483 1481 1479 1477 1475 1472 1467 1466 1463 1461 1461 1458 1457 1459 1462 1465 1467 1463 1467 1466 1466 1467 1464 1466 1465 1466 1460 1462 1458 1461 1462 1461 1460 1460 1458
1517 1513 1509 1505 1501 1498 1494 1490 1487 1482 1478 1476 1474 1472 1472 1474 1459 1458 1458 1457 1456 1457 1455 1456 1457 1457 1461 1461 1464 1460 1462 1464 1463 1460 1463 1466 1457 1459 1455 1453 1455 1456 1454 1453 1453
1516 1512 1508 1504 1499 1495 1491 1488 1485 1481 1477 1473 1471 1469 1467 1460 1456 1453 1454 1451 1451 1452 1452 1452 1457 1457 1457 1460 1459 1458 1463 1459 1458 1459 1458 1463 1452 1446 1450 1450 1450 1446 1446 1445 1444
1514 1509 1504 1500 1495 1491 1488 1485 1484 1480 1475 1471 1468 1466 1460 1452 1448 1447 1449 1444 1444 1446 1449 1451 1453 1454 1456 1455 1456 1459 1459 1462 1449 1457 1456 1462 1435 1439 1443 1445 1442 1440 1438 1438 1437
1511 1507 1502 1496 1491 1486 1483 1481 1481 1478 1473 1470 1468 1466 1457 1452 1448 1448 1445 1441 1440 1441 1445 1448 1451 1451 1452 1458 1466 1460 1450 1450 1454 1445 1450 1454 1423 1438 1441 1442 1437 1435 1433 1432 1431
1510 1505 1500 1495 1491 1487 1485 1483 1480 1477 1472 1468 1465 1466 1457 1451 1445 1441 1443 1443 1439 1439 1443 1444 1446 1448 1452 1454 1453 1453 1452 1444 1447 1443 1445 1446 1426 1434 1436 1438 1433 1429 1429 1427 1425
1509 1504 1500 1496 1492 1488 1485 1482 1480 1476 1473 1470 1463 1462 1452 1445 1443 1432 1438 1440 1437 1436 1436 1436 1444 1439 1432 1435 1439 1444 1446 1452 1442 1440 1443 1439 1430 1429 1432 1431 1427 1423 1421 1418 1417
1507 1503 1498 1495 1492 1488 1486 1484 1484 1483 1472 1463 1458 1456 1449 1445 1439 1430 1433 1438 1435 1434 1434 1438 1431 1432 1435 1440 1443 1446 1452 1455 1448 1441 1444 1441 1432 1429 1427 1421 1419 1415 1414 1412 1412
1505 1500 1496 1493 1491 1488 1485 1484 1481 1479 1477 1461 1456 1449 1444 1442 1437 1429 1432 1431 1436 1437 1435 1437 1431 1431 1434 1438 1440 1444 1448 1452 1454 1447 1440 1445 1432 1425 1415 1413 1410 1406 1405 1403 1407
1503 1498 1494 1491 1491 1487 1484 1481 1479 1478 1483 1464 1454 1448 1443 1440 1433 1429 1426 1430 1434 1435 1435 1434 1428 1430 1434 1437 1440 1446 1443 1444 1448 1454 1460 1442 1439 1425 1408 1404 1403 1400 1397 1397 1399
1500 1495 1492 1489 1488 1485 1484 1479 1476 1477 1484 1458 1453 1449 1443 1440 1428 1426 1425 1427 1429 1429 1430 1432 1428 1429 1433 1434 1435 1440 1442 1444 1446 1452 1453 1449 1457 1390 1404 1394 1392 1391 1388 1388 1387
1496 1491 1488 1487 1486 1484 1479 1476 1476 1484 1484 1460 1455 1451 1444 1436 1432 1433 1425 1423 1422 1428 1427 1429 1424 1427 1430 1430 1432 1433 1436 1440 1444 1454 1463 1443 1451 1393 1399 1383 1381 1378 1379 1380 1382
1492 1487 1484 1486 1485 1482 1477 1474 1486 1490 1470 1468 1460 1452 1447 1440 1433 1431 1429 1424 1430 1432 1431 1428 1426 1424 1426 1431 1430 1434 1445 1459 1463 1466 1445 1428 1442 1389 1377 1374 1374 1373 1374 1375 1375
1489 1485 1484 1485 1484 1481 1476 1477 1487 1475 1473 1468 1461 1453 1449 1443 1438 1432 1430 1431 1431 1432 1430 1432 1433 1422 1421 1425 1430 1435 1441 1451 1449 1451 1437 1423 1421 1381 1376 1368 1368 1371 1372 1369 1369
1488 1486 1486 1485 1484 1482 1480 1495 1484 1479 1474 1468 1461 1456 1453 1448 1447 1440 1436 1434 1430 1432 1432 1427 1428 1419 1420 1421 1424 1428 1437 1431 1439 1433 1439 1421 1392 1375 1368 1368 1364 1366 1364 1363 1364
1488 1486 1485 1485 1483 1483 1485 1486 1480 1477 1473 1468 1468 1460 1460 1453 1452 1448 1441 1438 1437 1434 1432 1430 1435 1425 1422 1422 1420 1422 1423 1439 1444 1440 1438 1414 1401 1381 1369 1368 1362 1362 1365 1361 1357
1488 1486 1486 1484 1483 1483 1490 1489 1479 1475 1472 1469 1468 1464 1459 1459 1456 1450 1445 1440 1440 1438 1436 1436 1437 1433 1427 1425 1424 1424 1426 1426 1427 1431 1427 1419 1398 1368 1370 1365 1368 1366 1361 1356 1349
1489 1488 1486 1485 1486 1487 1491 1485 1480 1473 1471 1468 1467 1463 1461 1457 1456 1449 1445 1442 1440 1439 1440 1438 1442 1442 1431 1420 1417 1421 1422 1422 1426 1424 1411 1417 1384 1355 1362 1365 1366 1363 1361 1356 1351
1491 1488 1487 1485 1496 1495 1486 1481 1478 1473 1469 1467 1466 1462 1460 1459 1459 1449 1443 1438 1438 1437 1438 1440 1443 1446 1434 1423 1420 1422 1418 1419 1422 1422 1410 1413 1377 1358 1363 1364 1366 1364 1359 1357 1357
1494 1494 1488 1487 1489 1490 1489 1481 1477 1475 1468 1466 1464 1459 1460 1458 1455 1449 1442 1436 1435 1435 1435 1437 1439 1438 1441 1428 1428 1427 1420 1417 1421 1425 1401 1390 1383 1380 1367 1367 1365 1362 1362 1358 1359
1499 1498 1497 1495 1490 1490 1489 1483 1478 1473 1471 1466 1462 1459 1460 1456 1450 1445 1438 1437 1432 1430 1431 1433 1431 1431 1429 1426 1425 1421 1420 1415 1414 1411 1410 1385 1383 1387 1377 1371 1367 1358 1359 1359 1358
1503 1503 1499 1496 1490 1489 1485 1481 1477 1472 1472 1466 1463 1458 1457 1455 1447 1441 1440 1438 1435 1429 1430 1432 1435 1429 1425 1420 1415 1412 1406 1407 1406 1401 1396 1392 1381 1381 1372 1368 1365 1356 1352 1350 1353
1503 1503 1501 1493 1488 1488 1483 1478 1475 1472 1466 1464 1460 1454 1450 1443 1438 1432 1429 1429 1428 1425 1426 1430 1430 1432 1421 1409 1413 1405 1384 1388 1388 1387 1384 1387 1379 1370 1366 1364 1361 1353 1347 1342 1346